User: anonymous
Location: Owatonna
(44.0840°N, 93.2260°W)
Time: 11:45:06
(UTC-05:00)
Language:

Tiangong 1 - Orbit

View from above orbital plane
View from above orbital plane
View from above satellite
View from above satellite

Ground track
Ground track

The orbit data is extracted from the following two-line orbital elements,

1 37820U 11053A   14294.22218943  .00058047  00000-0  45799-3 0  5011
2 37820 042.7696 272.4232 0006440 143.0216 343.9700 15.70531194175835
Epoch (UTC): 21 October 2014 05:19:57
Eccentricity: 0.0006440
inclination: 42.7696°
perigee height: 353 km
apogee height: 362 km
right ascension of ascending node: 272.4232°
argument of perigee: 143.0216°
revolutions per day: 15.70531194
mean anomaly at epoch: 343.9700°
orbit number at epoch: 17583

The dashed part of the orbit path shows where the satellite is in the earth's shadow,  

DLR